| time (UTC) | temp C | wind direction | speed KPH | gust KPH | rain 1hr cm | rain 24hr cm | rain mn cm | humidity % | barometer mb |
| 20260506113024 | 3 | 18 | 0.0 | 4.8 | 0.00 | 0.84 | 0.84 | 92 | 1017.9 |
| 20260506111506 | 3 | 28 | 1.6 | 4.8 | 0.03 | 0.84 | 0.84 | 92 | 1017.7 |
| 20260506110012 | 3 | 71 | 0.0 | 3.2 | 0.05 | 0.84 | 0.84 | 92 | 1017.9 |
| 20260506104519 | 3 | 93 | 0.0 | 3.2 | 0.15 | 0.84 | 0.84 | 92 | 1018.0 |
| 20260506103034 | 3 | 124 | 0.0 | 4.8 | 0.18 | 0.84 | 0.84 | 92 | 1017.8 |
| 20260506101525 | 3 | 68 | 1.6 | 12.9 | 0.18 | 0.81 | 0.81 | 92 | 1017.7 |
| 20260506100012 | 3 | 83 | 3.2 | 9.7 | 0.15 | 0.79 | 0.79 | 92 | 1017.6 |
| 20260506094518 | 3 | 124 | 4.8 | 11.3 | 0.08 | 0.69 | 0.69 | 92 | 1017.6 |
| 20260506093030 | 3 | 109 | 3.2 | 11.3 | 0.05 | 0.66 | 0.66 | 92 | 1017.7 |
| 20260506091527 | 3 | 107 | 8.0 | 12.9 | 0.03 | 0.64 | 0.64 | 91 | 1017.3 |
| 20260506090026 | 3 | 130 | 4.8 | 9.7 | 0.03 | 0.64 | 0.64 | 91 | 1017.2 |
| 20260506084503 | 3 | 129 | 3.2 | 9.7 | 0.00 | 0.61 | 0.61 | 91 | 1017.6 |
| 20260506083005 | 3 | 130 | 6.4 | 12.9 | 0.03 | 0.61 | 0.61 | 91 | 1017.2 |
| 20260506081504 | 3 | 133 | 1.6 | 9.7 | 0.10 | 0.61 | 0.61 | 91 | 1017.4 |
| 20260506073003 | 3 | 117 | 4.8 | 11.3 | 0.25 | 0.58 | 0.58 | 90 | 1017.7 |
| 20260506071507 | 3 | 144 | 8.0 | 12.9 | 0.23 | 0.51 | 0.51 | 90 | 1017.6 |
| 20260506061503 | 4 | 130 | 1.6 | 9.7 | 0.23 | 0.28 | 0.28 | 89 | 1017.8 |
| 20260506044504 | 5 | 53 | 1.6 | 8.0 | 0.00 | 0.00 | 0.00 | 85 | 1016.7 |
| 20260506043010 | 5 | 45 | 1.6 | 6.4 | 0.00 | 0.00 | 0.00 | 84 | 1017.1 |
| 20260506041516 | 5 | 109 | 1.6 | 11.3 | 0.00 | 0.00 | 0.00 | 83 | 1016.7 |
| 20260506040019 | 5 | 112 | 4.8 | 12.9 | 0.00 | 0.00 | 0.00 | 81 | 1016.3 |
| 20260506034503 | 5 | 131 | 6.4 | 14.5 | 0.00 | 0.00 | 0.00 | 78 | 1016.2 |
| 20260506033008 | 5 | 156 | 3.2 | 16.1 | 0.00 | 0.00 | 0.00 | 75 | 1016.3 |
| 20260506031514 | 5 | 98 | 6.4 | 19.3 | 0.00 | 0.00 | 0.00 | 74 | 1015.5 |
| 20260506030027 | 5 | 117 | 8.0 | 20.9 | 0.00 | 0.00 | 0.00 | 74 | 1015.4 |
| 20260506024536 | 6 | 82 | 3.2 | 16.1 | 0.00 | 0.00 | 0.00 | 74 | 1015.0 |
| 20260506023003 | 6 | 123 | 6.4 | 16.1 | 0.00 | 0.00 | 0.00 | 74 | 1014.7 |
| 20260506021509 | 6 | 111 | 4.8 | 17.7 | 0.00 | 0.00 | 0.00 | 72 | 1014.5 |
| 20260506020013 | 6 | 106 | 1.6 | 16.1 | 0.00 | 0.00 | 0.00 | 72 | 1014.5 |
| 20260506014521 | 6 | 123 | 3.2 | 11.3 | 0.00 | 0.00 | 0.00 | 72 | 1014.5 |
| 20260506013022 | 6 | 98 | 3.2 | 19.3 | 0.00 | 0.00 | 0.00 | 71 | 1014.5 |
| 20260506011508 | 6 | 113 | 1.6 | 16.1 | 0.00 | 0.00 | 0.00 | 71 | 1014.3 |
| 20260506010012 | 7 | 88 | 3.2 | 14.5 | 0.00 | 0.00 | 0.00 | 71 | 1014.3 |
| 20260506004518 | 7 | 49 | 4.8 | 17.7 | 0.00 | 0.00 | 0.00 | 70 | 1014.3 |
| 20260506003022 | 7 | 32 | 3.2 | 12.9 | 0.00 | 0.00 | 0.00 | 69 | 1014.3 |
| 20260506001532 | 7 | 12 | 4.8 | 11.3 | 0.00 | 0.00 | 0.00 | 69 | 1014.0 |
| 20260506000007 | 7 | 101 | 3.2 | 14.5 | 0.00 | 0.00 | 0.00 | 68 | 1014.2 |
| 20260505234503 | 8 | 360 | 4.8 | 17.7 | 0.00 | 0.00 | 0.00 | 66 | 1014.3 |
| 20260505233003 | 8 | 55 | 3.2 | 12.9 | 0.00 | 0.00 | 0.00 | 65 | 1014.2 |
| 20260505231505 | 8 | 26 | 4.8 | 14.5 | 0.00 | 0.00 | 0.00 | 64 | 1014.3 |
| 20260505230021 | 8 | 54 | 4.8 | 12.9 | 0.00 | 0.00 | 0.00 | 61 | 1014.3 |
| 20260505224528 | 9 | 74 | 3.2 | 12.9 | 0.00 | 0.00 | 0.00 | 60 | 1014.2 |
| 20260505223003 | 9 | 10 | 4.8 | 14.5 | 0.00 | 0.00 | 0.00 | 59 | 1013.9 |
| 20260505221504 | 10 | 131 | 4.8 | 12.9 | 0.00 | 0.00 | 0.00 | 57 | 1014.0 |
| 20260505220007 | 10 | 155 | 3.2 | 16.1 | 0.00 | 0.00 | 0.00 | 57 | 1013.7 |
| 20260505214511 | 10 | 198 | 3.2 | 12.9 | 0.00 | 0.00 | 0.00 | 56 | 1013.6 |
| 20260505213016 | 10 | 117 | 4.8 | 14.5 | 0.00 | 0.00 | 0.00 | 56 | 1013.6 |
| 20260505211504 | 10 | 318 | 4.8 | 14.5 | 0.00 | 0.00 | 0.00 | 55 | 1013.9 |
| 20260505210026 | 11 | 76 | 3.2 | 14.5 | 0.00 | 0.00 | 0.00 | 54 | 1014.0 |
| 20260505204511 | 11 | 45 | 4.8 | 19.3 | 0.00 | 0.00 | 0.00 | 53 | 1013.8 |
| 20260505203019 | 11 | 128 | 3.2 | 16.1 | 0.00 | 0.00 | 0.00 | 53 | 1013.9 |
| 20260505201518 | 11 | 9 | 8.0 | 19.3 | 0.00 | 0.00 | 0.00 | 52 | 1013.9 |
| 20260505200006 | 11 | 9 | 3.2 | 17.7 | 0.00 | 0.00 | 0.00 | 1014.1 | |
| 20260505194508 | 12 | 126 | 4.8 | 14.5 | 0.00 | 0.00 | 0.00 | 51 | 1014.2 |
| 20260505193011 | 11 | 112 | 3.2 | 17.7 | 0.00 | 0.00 | 0.00 | 1014.2 | |
| 20260505191523 | 12 | 78 | 4.8 | 16.1 | 0.00 | 0.00 | 0.00 | 51 | 1014.4 |
| 20260505190022 | 12 | 37 | 3.2 | 11.3 | 0.00 | 0.00 | 0.00 | 50 | 1014.3 |
| 20260505184508 | 12 | 108 | 4.8 | 14.5 | 0.00 | 0.00 | 0.00 | 50 | 1014.4 |
| 20260505183011 | 12 | 64 | 3.2 | 22.5 | 0.00 | 0.00 | 0.00 | 50 | 1014.5 |
| 20260505181517 | 12 | 349 | 4.8 | 20.9 | 0.00 | 0.00 | 0.00 | 49 | 1014.6 |
| 20260505180039 | 12 | 352 | 4.8 | 20.9 | 0.00 | 0.00 | 0.00 | 48 | 1014.5 |
| 20260505174522 | 13 | 27 | 4.8 | 19.3 | 0.00 | 0.00 | 0.00 | 47 | 1014.4 |
| 20260505173010 | 12 | 352 | 6.4 | 19.3 | 0.00 | 0.00 | 0.00 | 48 | 1014.6 |
| 20260505171516 | 12 | 52 | 8.0 | 19.3 | 0.00 | 0.00 | 0.00 | 49 | 1014.5 |
| 20260505170022 | 11 | 83 | 8.0 | 17.7 | 0.00 | 0.00 | 0.00 | 50 | 1014.9 |
| 20260505164526 | 11 | 131 | 6.4 | 19.3 | 0.00 | 0.00 | 0.00 | 49 | 1015.0 |
| 20260505163028 | 11 | 20 | 4.8 | 17.7 | 0.00 | 0.00 | 0.00 | 50 | 1014.7 |
| 20260505161514 | 11 | 117 | 6.4 | 24.1 | 0.00 | 0.00 | 0.00 | 50 | 1014.7 |
| 20260505153026 | 10 | 76 | 6.4 | 17.7 | 0.00 | 0.00 | 0.00 | 53 | 1014.8 |
| 20260505151526 | 10 | 25 | 6.4 | 17.7 | 0.00 | 0.00 | 0.00 | 53 | 1014.7 |
| 20260505124505 | 8 | 5 | 6.4 | 14.5 | 0.00 | 0.00 | 0.00 | 61 | 1013.1 |
| 20260505123012 | 8 | 82 | 6.4 | 16.1 | 0.00 | 0.00 | 0.00 | 61 | 1012.7 |
| 20260505121506 | 8 | 18 | 3.2 | 12.9 | 0.00 | 0.00 | 0.00 | 61 | 1012.1 |
| 20260505120019 | 8 | 117 | 6.4 | 17.7 | 0.00 | 0.00 | 0.00 | 60 | 1011.2 |
| 20260505114514 | 8 | 30 | 4.8 | 14.5 | 0.00 | 0.00 | 0.00 | 61 | 1011.1 |